LEMUR-2-TOMATOKECHUP

Last updated on Mon Sep 16 2024 00:02:03 GMT+0000 (Coordinated Universal Time)

1 60471U 24149D 24258.91183390 .00016532 00000+0 81643-3 0 9994 2 60471 97.4433 333.9999 0002097 9.8165 350.3109 15.17944866 4413
UTC large
Height (km)
Speed (km/s)
/
Latitude / Longitude
Inclination (degrees)
Orbital Period (minutes)
Azimuth
Elevation
Range (km)
Doppler Factor

Next 0 passes for location: London (51.5072 / 0.1276)

Sorry there are no passes over London.